ITY1744 LICC-LIRF

Flight info

Callsign ITY1744
Flight time 1h 2m
Altitude 32000
Route BUDIN DCT DIRED DCT SOR DCT TEA Z803 LAT
Aircraft A20N/M-SDE2E3FGHIRWXY/LB1

Departure

Time 2026-05-05 08:55
Airport Catania-Fontanarossa Airport (LICC)

Arrival

Time 2026-05-05 09:57
Airport Rome–Fiumicino Leonardo da Vinci International Airport (LIRF)
Time Latitude Longitude Altitude Speed Heading
2026-05-05 08:24 37.46885 15.06191 41 ft 0 kts 354°
2026-05-05 08:46 37.46883 15.06191 41 ft 1 kts 354°
2026-05-05 08:46 37.46869 15.06194 41 ft 2 kts 351°
2026-05-05 08:46 37.46854 15.06197 41 ft 2 kts 351°
2026-05-05 08:46 37.46839 15.06200 41 ft 2 kts 351°
2026-05-05 08:47 37.46824 15.06203 41 ft 2 kts 351°
2026-05-05 08:47 37.46812 15.06205 41 ft 0 kts 349°
2026-05-05 08:47 37.46808 15.06206 41 ft 0 kts 40°
2026-05-05 08:47 37.46805 15.06202 41 ft 0 kts 80°
2026-05-05 08:48 37.46805 15.06194 41 ft 1 kts 84°
2026-05-05 08:48 37.46805 15.06193 41 ft 0 kts 84°
2026-05-05 08:51 37.46806 15.06201 41 ft 3 kts 84°
2026-05-05 08:51 37.46811 15.06264 40 ft 10 kts 83°
2026-05-05 08:51 37.46822 15.06387 38 ft 17 kts 84°
2026-05-05 08:52 37.46837 15.06560 36 ft 22 kts 84°
2026-05-05 08:52 37.46856 15.06772 34 ft 26 kts 85°
2026-05-05 08:52 37.46875 15.07012 34 ft 27 kts 83°
2026-05-05 08:52 37.46896 15.07248 34 ft 26 kts 83°
2026-05-05 08:53 37.46914 15.07468 35 ft 24 kts 85°
2026-05-05 08:53 37.46929 15.07680 36 ft 23 kts 85°
2026-05-05 08:53 37.46950 15.07880 36 ft 22 kts 82°
2026-05-05 08:53 37.46956 15.08032 36 ft 14 kts 96°
2026-05-05 08:54 37.46886 15.08092 36 ft 14 kts 179°
2026-05-05 08:54 37.46796 15.08049 36 ft 15 kts 242°
2026-05-05 08:54 37.46786 15.07942 36 ft 0 kts 263°
2026-05-05 08:55 37.46763 15.07673 36 ft 71 kts 264°
2026-05-05 08:55 37.46685 15.06729 36 ft 140 kts 263°
2026-05-05 08:55 37.46569 15.05372 362 ft 165 kts 263°
2026-05-05 08:55 37.46435 15.03918 971 ft 173 kts 264°
2026-05-05 08:56 37.46317 15.02403 1682 ft 180 kts 266°
2026-05-05 08:56 37.46224 15.00847 2425 ft 181 kts 267°
2026-05-05 08:56 37.46160 14.99277 3120 ft 185 kts 269°
2026-05-05 08:56 37.46123 14.97665 3795 ft 189 kts 270°
2026-05-05 08:57 37.46087 14.96014 4484 ft 193 kts 269°
2026-05-05 08:57 37.46032 14.94272 5029 ft 206 kts 269°
2026-05-05 08:57 37.45955 14.92433 5554 ft 222 kts 268°
2026-05-05 08:57 37.45840 14.90385 6036 ft 243 kts 266°
2026-05-05 08:58 37.45679 14.88284 6797 ft 250 kts 265°
2026-05-05 08:58 37.45430 14.86082 7606 ft 257 kts 261°
2026-05-05 08:58 37.45062 14.83900 8518 ft 258 kts 259°
2026-05-05 08:58 37.44740 14.81724 9437 ft 257 kts 263°
2026-05-05 08:59 37.44488 14.79522 10352 ft 256 kts 268°
2026-05-05 08:59 37.44597 14.77337 11229 ft 253 kts 287°
2026-05-05 08:59 37.45430 14.75436 11985 ft 256 kts 315°
2026-05-05 08:59 37.47004 14.74348 12586 ft 269 kts 348°
2026-05-05 09:00 37.48935 14.74353 13084 ft 287 kts
2026-05-05 09:00 37.50932 14.74767 13584 ft 301 kts
2026-05-05 09:00 37.53045 14.74849 14135 ft 307 kts 351°
2026-05-05 09:00 37.55161 14.74341 14755 ft 313 kts 343°
2026-05-05 09:01 37.57336 14.73814 15273 ft 327 kts 353°
2026-05-05 09:01 37.59626 14.73671 15809 ft 337 kts 353°
2026-05-05 09:01 37.62002 14.73398 16113 ft 353 kts 351°
2026-05-05 09:01 37.64506 14.73055 16394 ft 369 kts 351°
2026-05-05 09:02 37.67121 14.72691 16848 ft 380 kts 351°
2026-05-05 09:02 37.69736 14.72331 17483 ft 383 kts 351°
2026-05-05 09:02 37.72383 14.71969 18144 ft 387 kts 351°
2026-05-05 09:02 37.75085 14.71599 18753 ft 391 kts 351°
2026-05-05 09:03 37.77805 14.71226 19335 ft 395 kts 351°
2026-05-05 09:03 37.80551 14.70849 19920 ft 398 kts 351°
2026-05-05 09:03 37.83286 14.70474 20505 ft 401 kts 351°
2026-05-05 09:03 37.86097 14.70090 21073 ft 405 kts 351°
2026-05-05 09:04 37.88899 14.69706 21628 ft 409 kts 351°
2026-05-05 09:04 37.91778 14.69586 22162 ft 417 kts
2026-05-05 09:04 37.94641 14.70274 22694 ft 426 kts 14°
2026-05-05 09:04 37.97375 14.71758 23217 ft 434 kts 25°
2026-05-05 09:05 38.00025 14.73634 23793 ft 437 kts 27°
2026-05-05 09:05 38.02636 14.75542 24288 ft 441 kts 27°
2026-05-05 09:05 38.05298 14.77487 24810 ft 443 kts 27°
2026-05-05 09:05 38.07999 14.79452 25322 ft 446 kts 26°
2026-05-05 09:06 38.10696 14.81401 25813 ft 448 kts 26°
2026-05-05 09:06 38.13394 14.83337 26278 ft 451 kts 26°
2026-05-05 09:06 38.16173 14.85326 26739 ft 453 kts 26°
2026-05-05 09:06 38.18908 14.87288 27187 ft 456 kts 26°
2026-05-05 09:07 38.21658 14.89264 27613 ft 458 kts 26°
2026-05-05 09:07 38.24469 14.91287 28010 ft 460 kts 26°
2026-05-05 09:07 38.27236 14.93280 28386 ft 462 kts 26°
2026-05-05 09:07 38.30033 14.95296 28750 ft 464 kts 26°
2026-05-05 09:08 38.32856 14.97334 29106 ft 465 kts 26°
2026-05-05 09:08 38.35656 14.99358 29544 ft 464 kts 26°
2026-05-05 09:08 38.38461 15.01391 30022 ft 462 kts 26°
2026-05-05 09:08 38.41256 15.03381 30475 ft 459 kts 23°
2026-05-05 09:09 38.44197 15.04866 30770 ft 454 kts 12°
2026-05-05 09:09 38.47293 15.05626 31028 ft 450 kts
2026-05-05 09:09 38.50395 15.05660 31260 ft 447 kts 352°
2026-05-05 09:09 38.53434 15.05001 31490 ft 444 kts 341°
2026-05-05 09:10 38.56340 15.03732 31722 ft 443 kts 336°
2026-05-05 09:10 38.59204 15.02278 31960 ft 444 kts 335°
2026-05-05 09:10 38.62086 15.00784 32062 ft 446 kts 335°
2026-05-05 09:11 38.67829 14.97806 32078 ft 446 kts 335°
2026-05-05 09:11 38.73557 14.94850 32082 ft 445 kts 335°
2026-05-05 09:12 38.79322 14.91878 32086 ft 448 kts 335°
2026-05-05 09:12 38.85141 14.88872 32078 ft 452 kts 335°
2026-05-05 09:13 38.90978 14.85858 32083 ft 453 kts 335°
2026-05-05 09:13 38.96810 14.82841 32079 ft 453 kts 335°
2026-05-05 09:14 39.02651 14.79812 32083 ft 454 kts 334°
2026-05-05 09:14 39.08506 14.76771 32079 ft 454 kts 335°
2026-05-05 09:15 39.14376 14.73726 32080 ft 453 kts 334°
2026-05-05 09:15 39.20251 14.70674 32081 ft 453 kts 334°
2026-05-05 09:16 39.26061 14.67643 32081 ft 453 kts 334°
2026-05-05 09:16 39.31900 14.64584 32082 ft 452 kts 334°
2026-05-05 09:17 39.37744 14.61512 32082 ft 452 kts 334°
2026-05-05 09:17 39.43558 14.58447 32082 ft 453 kts 334°
2026-05-05 09:18 39.49385 14.55379 32080 ft 453 kts 334°
2026-05-05 09:18 39.55374 14.52714 32077 ft 456 kts 340°
2026-05-05 09:19 39.61560 14.50859 32077 ft 460 kts 346°
2026-05-05 09:19 39.67918 14.49656 32080 ft 461 kts 348°
2026-05-05 09:20 39.74258 14.48556 32079 ft 461 kts 348°
2026-05-05 09:20 39.80604 14.47448 32080 ft 461 kts 348°
2026-05-05 09:21 39.86937 14.46336 32080 ft 461 kts 348°
2026-05-05 09:21 39.93293 14.45211 32080 ft 461 kts 348°
2026-05-05 09:22 39.99664 14.44082 32078 ft 461 kts 348°
2026-05-05 09:22 40.05999 14.42957 32083 ft 461 kts 348°
2026-05-05 09:23 40.12371 14.41825 32081 ft 461 kts 347°
2026-05-05 09:23 40.18749 14.40696 32085 ft 462 kts 347°
2026-05-05 09:24 40.25140 14.39557 32081 ft 462 kts 347°
2026-05-05 09:24 40.31498 14.38418 32086 ft 461 kts 347°
2026-05-05 09:25 40.37843 14.37273 32086 ft 462 kts 347°
2026-05-05 09:25 40.44189 14.36122 32088 ft 461 kts 347°
2026-05-05 09:26 40.50552 14.34972 32083 ft 462 kts 346°
2026-05-05 09:26 40.56878 14.33478 32089 ft 458 kts 341°
2026-05-05 09:27 40.62932 14.31183 32089 ft 454 kts 335°
2026-05-05 09:27 40.68853 14.28256 32091 ft 452 kts 333°
2026-05-05 09:28 40.74675 14.25295 32098 ft 446 kts 333°
2026-05-05 09:28 40.80454 14.22353 32097 ft 446 kts 333°
2026-05-05 09:29 40.86225 14.19415 32101 ft 446 kts 333°
2026-05-05 09:29 40.92037 14.16449 32104 ft 446 kts 333°
2026-05-05 09:30 40.97831 14.13493 32103 ft 446 kts 333°
2026-05-05 09:30 41.03623 14.10528 32102 ft 446 kts 333°
2026-05-05 09:31 41.09385 14.07571 32096 ft 447 kts 333°
2026-05-05 09:31 41.15199 14.04594 32097 ft 448 kts 333°
2026-05-05 09:32 41.21012 14.01586 32091 ft 447 kts 331°
2026-05-05 09:32 41.26450 13.97712 32028 ft 441 kts 321°
2026-05-05 09:32 41.28891 13.95359 31659 ft 437 kts 316°
2026-05-05 09:33 41.31195 13.92681 31034 ft 437 kts 311°
2026-05-05 09:33 41.33268 13.89784 30303 ft 435 kts 306°
2026-05-05 09:33 41.35146 13.86633 29522 ft 431 kts 301°
2026-05-05 09:33 41.36852 13.83379 28706 ft 428 kts 300°
2026-05-05 09:34 41.38486 13.80161 28137 ft 422 kts 300°
2026-05-05 09:34 41.40142 13.76903 27623 ft 419 kts 300°
2026-05-05 09:34 41.41771 13.73717 27110 ft 415 kts 300°
2026-05-05 09:34 41.43249 13.70500 26561 ft 408 kts 294°
2026-05-05 09:35 41.44390 13.67090 26024 ft 401 kts 287°
2026-05-05 09:35 41.45706 13.59989 24886 ft 391 kts 277°
2026-05-05 09:35 41.46160 13.56442 24342 ft 388 kts 277°
2026-05-05 09:36 41.46596 13.52959 23792 ft 386 kts 277°
2026-05-05 09:36 41.47042 13.49419 23254 ft 383 kts 277°
2026-05-05 09:36 41.47474 13.45961 22736 ft 381 kts 277°
2026-05-05 09:36 41.47910 13.42472 22198 ft 379 kts 277°
2026-05-05 09:37 41.48337 13.39063 21677 ft 376 kts 277°
2026-05-05 09:37 41.48764 13.35642 21150 ft 374 kts 277°
2026-05-05 09:37 41.49193 13.32194 20624 ft 373 kts 277°
2026-05-05 09:37 41.49614 13.28815 20120 ft 370 kts 277°
2026-05-05 09:38 41.50027 13.25466 19596 ft 369 kts 277°
2026-05-05 09:38 41.50445 13.22098 19085 ft 367 kts 277°
2026-05-05 09:38 41.50859 13.18747 18561 ft 365 kts 277°
2026-05-05 09:38 41.51268 13.15426 18043 ft 363 kts 277°
2026-05-05 09:39 41.51671 13.12137 17547 ft 361 kts 277°
2026-05-05 09:39 41.52075 13.08826 17038 ft 359 kts 277°
2026-05-05 09:39 41.52470 13.05592 16640 ft 353 kts 277°
2026-05-05 09:39 41.53183 13.02422 16374 ft 361 kts 296°
2026-05-05 09:40 41.54781 12.99823 16145 ft 369 kts 313°
2026-05-05 09:40 41.56648 12.97498 15895 ft 368 kts 313°
2026-05-05 09:40 41.58509 12.95140 15644 ft 366 kts 313°
2026-05-05 09:40 41.60345 12.92766 15397 ft 365 kts 313°
2026-05-05 09:41 41.62149 12.90411 15132 ft 363 kts 312°
2026-05-05 09:41 41.63929 12.88067 14849 ft 362 kts 312°
2026-05-05 09:41 41.65720 12.85696 14474 ft 360 kts 312°
2026-05-05 09:41 41.67492 12.83341 14040 ft 357 kts 312°
2026-05-05 09:42 41.69231 12.81024 13587 ft 354 kts 312°
2026-05-05 09:42 41.70985 12.78684 13125 ft 351 kts 312°
2026-05-05 09:42 41.72688 12.76410 12652 ft 349 kts 312°
2026-05-05 09:42 41.74392 12.74132 12169 ft 346 kts 312°
2026-05-05 09:43 41.76092 12.71855 11680 ft 344 kts 312°
2026-05-05 09:43 41.77769 12.69609 11192 ft 342 kts 312°
2026-05-05 09:43 41.79440 12.67368 10700 ft 340 kts 312°
2026-05-05 09:43 41.81110 12.65129 10444 ft 329 kts 312°
2026-05-05 09:44 41.82691 12.63009 10320 ft 315 kts 312°
2026-05-05 09:44 41.84200 12.60984 10207 ft 301 kts 312°
2026-05-05 09:44 41.85637 12.59052 10117 ft 287 kts 312°
2026-05-05 09:44 41.87016 12.57194 10036 ft 274 kts 311°
2026-05-05 09:45 41.88357 12.55383 9711 ft 272 kts 311°
2026-05-05 09:45 41.89684 12.53589 9377 ft 270 kts 311°
2026-05-05 09:45 41.91008 12.51799 9055 ft 268 kts 311°
2026-05-05 09:45 41.92314 12.50035 8743 ft 265 kts 311°
2026-05-05 09:46 41.93614 12.48279 8435 ft 263 kts 311°
2026-05-05 09:46 41.94884 12.46563 8134 ft 261 kts 311°
2026-05-05 09:46 41.96156 12.44844 7835 ft 259 kts 311°
2026-05-05 09:46 41.97429 12.43120 7540 ft 256 kts 311°
2026-05-05 09:47 41.98675 12.41432 7246 ft 254 kts 311°
2026-05-05 09:47 41.99909 12.39760 6958 ft 253 kts 311°
2026-05-05 09:47 42.01153 12.38072 6669 ft 251 kts 311°
2026-05-05 09:47 42.02369 12.36422 6387 ft 249 kts 311°
2026-05-05 09:48 42.03590 12.34764 6099 ft 248 kts 310°
2026-05-05 09:48 42.04798 12.33112 5814 ft 247 kts 310°
2026-05-05 09:48 42.05993 12.31475 5534 ft 246 kts 310°
2026-05-05 09:48 42.07196 12.29830 5254 ft 247 kts 310°
2026-05-05 09:49 42.08389 12.28205 5071 ft 240 kts 310°
2026-05-05 09:49 42.09536 12.26649 5044 ft 226 kts 310°
2026-05-05 09:49 42.10617 12.25184 5000 ft 214 kts 310°
2026-05-05 09:49 42.11654 12.23793 4954 ft 204 kts 310°
2026-05-05 09:50 42.12644 12.22420 4885 ft 204 kts 303°
2026-05-05 09:50 42.13132 12.20742 4819 ft 191 kts 266°
2026-05-05 09:50 42.12806 12.19053 4807 ft 187 kts 235°
2026-05-05 09:50 42.11865 12.17876 4803 ft 188 kts 206°
2026-05-05 09:51 42.10577 12.17548 4790 ft 194 kts 175°
2026-05-05 09:51 42.09300 12.18181 4805 ft 200 kts 156°
2026-05-05 09:51 42.08019 12.18879 4782 ft 197 kts 176°
2026-05-05 09:51 42.06663 12.18980 4798 ft 192 kts 182°
2026-05-05 09:52 42.05340 12.19013 4565 ft 192 kts 182°
2026-05-05 09:52 42.04001 12.18993 4256 ft 193 kts 185°
2026-05-05 09:52 42.02660 12.18984 3992 ft 192 kts 178°
2026-05-05 09:52 42.01337 12.19232 3733 ft 192 kts 170°
2026-05-05 09:53 42.00043 12.19675 3473 ft 192 kts 166°
2026-05-05 09:53 41.98782 12.20192 3317 ft 183 kts 165°
2026-05-05 09:53 41.97592 12.20700 3146 ft 175 kts 164°
2026-05-05 09:53 41.96424 12.21194 2664 ft 179 kts 163°
2026-05-05 09:54 41.95244 12.21690 2221 ft 175 kts 162°
2026-05-05 09:54 41.94112 12.22165 1968 ft 162 kts 162°
2026-05-05 09:54 41.93079 12.22597 1745 ft 150 kts 161°
2026-05-05 09:54 41.92120 12.22999 1529 ft 139 kts 161°
2026-05-05 09:55 41.91224 12.23374 1361 ft 133 kts 161°
2026-05-05 09:55 41.90356 12.23737 1182 ft 127 kts 161°
2026-05-05 09:55 41.89516 12.24088 1026 ft 126 kts 161°
2026-05-05 09:55 41.88680 12.24435 868 ft 126 kts 161°
2026-05-05 09:56 41.87840 12.24786 696 ft 125 kts 161°
2026-05-05 09:56 41.87016 12.25125 501 ft 125 kts 161°
2026-05-05 09:56 41.86181 12.25471 316 ft 125 kts 160°
2026-05-05 09:56 41.85352 12.25825 175 ft 125 kts 160°
2026-05-05 09:57 41.84523 12.26167 47 ft 124 kts 160°
2026-05-05 09:57 41.83723 12.26501 11 ft 108 kts 159°
2026-05-05 09:57 41.83179 12.26751 8 ft 59 kts 163°
2026-05-05 09:57 41.82849 12.26889 8 ft 37 kts 176°
2026-05-05 09:58 41.82610 12.26844 7 ft 21 kts 187°
2026-05-05 09:58 41.82471 12.26803 7 ft 20 kts 195°
2026-05-05 09:58 41.82332 12.26788 7 ft 19 kts 165°
2026-05-05 09:58 41.82198 12.26835 7 ft 19 kts 163°
2026-05-05 09:59 41.82068 12.26890 7 ft 19 kts 162°
2026-05-05 09:59 41.81942 12.26947 7 ft 18 kts 162°
2026-05-05 09:59 41.81818 12.27000 7 ft 18 kts 162°
2026-05-05 09:59 41.81688 12.27049 8 ft 20 kts 164°
2026-05-05 10:00 41.81539 12.27108 9 ft 23 kts 162°
2026-05-05 10:00 41.81372 12.27180 9 ft 26 kts 162°
2026-05-05 10:00 41.81192 12.27257 10 ft 28 kts 162°
2026-05-05 10:00 41.81005 12.27335 10 ft 26 kts 163°
2026-05-05 10:01 41.80828 12.27328 10 ft 25 kts 192°
2026-05-05 10:01 41.80671 12.27256 10 ft 23 kts 231°
2026-05-05 10:01 41.80608 12.27060 11 ft 21 kts 249°
2026-05-05 10:01 41.80556 12.26871 12 ft 22 kts 250°
2026-05-05 10:02 41.80500 12.26670 13 ft 23 kts 249°
2026-05-05 10:02 41.80442 12.26465 15 ft 23 kts 250°
2026-05-05 10:02 41.80385 12.26256 16 ft 23 kts 249°
2026-05-05 10:02 41.80298 12.26088 16 ft 22 kts 209°
2026-05-05 10:03 41.80161 12.26005 17 ft 21 kts 202°
2026-05-05 10:03 41.80029 12.25924 18 ft 20 kts 204°
2026-05-05 10:03 41.79902 12.25843 19 ft 19 kts 205°
2026-05-05 10:03 41.79782 12.25815 20 ft 17 kts 205°
2026-05-05 10:04 41.79675 12.25748 20 ft 16 kts 207°
2026-05-05 10:04 41.79590 12.25692 20 ft 5 kts 196°
2026-05-05 10:04 41.79570 12.25707 21 ft 0 kts 117°
2026-05-05 10:04 41.79568 12.25712 21 ft 1 kts 118°
2026-05-05 10:05 41.79563 12.25724 21 ft 0 kts 118°